Temp
-7 -6 -6 -6 -7 -7 -8 -9 -9 -9 -9 -10 -10 -10 -11 -11 -11 -12 -12 -12 -11 -12 -11 -11 -10 -10 -10 -9 -9 -8 -7 -6 -7 -7 -7 -7 -7 -8 -8 -9 -9 -8 -8 -7 -6
-7 -7 -7 -7 -8 -9 -9 -9 -9 -10 -11 -11 -12 -13 -13 -13 -13 -14 -13 -12 -12 -12 -12 -12 -11 -10 -10 -10 -9 -9 -7 -7 -7 -7 -7 -7 -8 -8 -8 -9 -9 -8 -8 -7 -7
-7 -7 -8 -8 -9 -10 -10 -10 -10 -11 -11 -13 -13 -13 -14 -14 -14 -15 -16 -16 -15 -13 -12 -12 -12 -11 -11 -11 -10 -9 -8 -8 -8 -8 -8 -8 -8 -8 -9 -9 -9 -9 -8 -7 -7
-7 -8 -8 -9 -10 -10 -10 -11 -11 -11 -14 -14 -14 -14 -15 -15 -16 -16 -17 -17 -17 -16 -13 -12 -12 -12 -11 -11 -11 -10 -9 -9 -9 -9 -8 -8 -8 -8 -9 -9 -9 -9 -8 -8 -7
-8 -8 -9 -10 -10 -10 -11 -11 -12 -13 -15 -15 -15 -15 -15 -16 -16 -17 -17 -17 -18 -18 -16 -14 -13 -12 -12 -11 -11 -11 -10 -10 -10 -9 -8 -9 -8 -9 -8 -9 -9 -9 -8 -8 -7
-8 -9 -10 -10 -10 -11 -11 -12 -12 -14 -15 -15 -15 -15 -16 -16 -16 -17 -17 -17 -17 -18 -18 -17 -15 -13 -12 -12 -11 -11 -10 -10 -10 -10 -9 -9 -9 -9 -8 -9 -9 -9 -9 -8 -8
-9 -10 -11 -11 -11 -11 -12 -13 -13 -15 -15 -15 -15 -15 -16 -16 -17 -16 -17 -17 -17 -17 -17 -17 -17 -16 -14 -12 -12 -11 -11 -11 -10 -10 -10 -9 -9 -7 -9 -9 -9 -9 -9 -8 -8
-10 -11 -11 -11 -11 -12 -12 -13 -15 -15 -15 -15 -15 -15 -15 -15 -17 -17 -17 -17 -17 -17 -16 -16 -16 -16 -16 -14 -13 -12 -11 -11 -11 -10 -10 -10 -8 -9 -10 -8 -9 -9 -9 -8 -8
-10 -11 -12 -12 -12 -12 -13 -13 -15 -15 -15 -15 -15 -15 -16 -16 -16 -17 -17 -17 -17 -17 -17 -16 -16 -16 -16 -16 -14 -13 -12 -12 -11 -11 -11 -10 -8 -10 -10 -9 -9 -9 -9 -9 -8
-11 -12 -12 -12 -12 -13 -13 -14 -15 -15 -15 -15 -16 -16 -16 -16 -16 -17 -17 -17 -17 -17 -17 -17 -17 -16 -16 -16 -16 -15 -14 -12 -11 -11 -11 -10 -9 -10 -11 -10 -10 -9 -9 -9 -8
-11 -12 -12 -12 -12 -13 -14 -13 -15 -15 -15 -16 -16 -16 -16 -16 -16 -17 -18 -18 -17 -17 -17 -16 -16 -17 -17 -16 -16 -16 -15 -14 -12 -11 -11 -11 -10 -11 -11 -11 -10 -9 -9 -9 -9
-12 -12 -13 -13 -13 -13 -14 -14 -15 -16 -15 -16 -16 -16 -16 -17 -17 -18 -18 -18 -18 -18 -18 -17 -17 -17 -17 -17 -16 -16 -15 -15 -14 -12 -11 -11 -10 -11 -12 -12 -11 -9 -8 -9 -9
-12 -13 -13 -13 -13 -14 -14 -14 -15 -15 -16 -17 -17 -16 -17 -17 -17 -17 -19 -19 -19 -19 -19 -18 -18 -18 -17 -17 -16 -16 -16 -16 -15 -13 -11 -11 -11 -12 -11 -11 -12 -9 -9 -10 -9
-13 -13 -13 -13 -13 -14 -15 -14 -15 -15 -16 -17 -16 -16 -17 -17 -18 -18 -20 -19 -19 -19 -18 -18 -19 -19 -19 -18 -17 -17 -17 -16 -16 -15 -12 -12 -11 -13 -11 -11 -11 -10 -9 -10 -10
-13 -13 -13 -13 -14 -14 -15 -14 -15 -16 -17 -17 -17 -18 -18 -17 -18 -20 -19 -20 -20 -20 -20 -20 -20 -20 -20 -20 -20 -18 -18 -17 -17 -16 -13 -12 -12 -13 -11 -11 -11 -10 -10 -10 -9
-13 -13 -13 -13 -14 -14 -14 -14 -15 -17 -17 -17 -18 -18 -18 -18 -19 -19 -20 -20 -20 -20 -20 -21 -20 -20 -21 -21 -20 -20 -19 -18 -17 -17 -15 -14 -12 -13 -11 -10 -10 -11 -10 -10 -9
-13 -13 -13 -13 -14 -14 -15 -15 -15 -16 -17 -17 -17 -18 -18 -19 -19 -20 -20 -20 -21 -20 -21 -21 -21 -21 -21 -21 -20 -20 -20 -19 -18 -18 -15 -14 -14 -13 -11 -10 -9 -10 -10 -10 -9
-13 -13 -13 -13 -14 -14 -15 -15 -16 -16 -17 -17 -17 -18 -18 -19 -19 -20 -20 -20 -21 -21 -21 -21 -22 -21 -21 -21 -21 -21 -20 -20 -18 -17 -15 -16 -14 -13 -11 -10 -10 -11 -11 -10 -9
-13 -14 -14 -14 -14 -15 -15 -16 -16 -16 -17 -17 -17 -18 -19 -19 -20 -20 -20 -20 -21 -21 -21 -22 -22 -21 -21 -22 -22 -21 -20 -20 -18 -17 -17 -16 -13 -12 -11 -12 -12 -12 -12 -11 -10
-14 -14 -14 -14 -14 -14 -16 -16 -16 -16 -17 -18 -18 -18 -18 -19 -19 -20 -20 -20 -20 -21 -22 -23 -22 -22 -22 -22 -22 -21 -20 -20 -19 -18 -18 -15 -13 -12 -12 -13 -13 -12 -11 -10 -9
-14 -14 -14 -14 -14 -14 -15 -16 -17 -17 -17 -18 -18 -18 -19 -19 -19 -20 -20 -20 -20 -21 -22 -22 -22 -22 -22 -22 -22 -21 -20 -19 -18 -18 -17 -15 -13 -13 -12 -11 -10 -11 -10 -10 -9
-14 -14 -14 -14 -14 -14 -15 -16 -17 -17 -17 -18 -19 -18 -18 -19 -18 -19 -20 -20 -20 -20 -21 -21 -21 -22 -21 -21 -21 -20 -19 -18 -17 -17 -16 -15 -13 -12 -11 -11 -11 -10 -10 -10 -10
-14 -14 -14 -14 -14 -14 -15 -17 -17 -17 -17 -18 -18 -18 -18 -18 -18 -19 -19 -20 -20 -20 -21 -20 -21 -21 -21 -21 -20 -19 -17 -18 -17 -17 -17 -15 -13 -12 -12 -12 -12 -11 -10 -10 -9
-14 -14 -14 -14 -14 -14 -14 -15 -16 -17 -17 -18 -18 -18 -17 -18 -18 -18 -19 -19 -20 -20 -20 -21 -20 -20 -20 -20 -19 -18 -18 -17 -17 -16 -16 -15 -13 -12 -12 -12 -12 -11 -11 -11 -11
-14 -14 -14 -14 -14 -14 -14 -15 -16 -16 -17 -17 -18 -17 -17 -17 -17 -17 -18 -19 -19 -20 -20 -21 -20 -20 -20 -20 -18 -18 -17 -17 -16 -16 -16 -14 -13 -12 -11 -11 -10 -10 -10 -10 -11
-14 -14 -15 -14 -14 -14 -14 -15 -15 -17 -16 -16 -17 -17 -17 -17 -17 -17 -18 -18 -19 -19 -20 -20 -19 -19 -19 -19 -19 -17 -17 -16 -15 -15 -16 -15 -12 -12 -12 -11 -11 -11 -11 -11 -11
-14 -15 -15 -15 -14 -14 -14 -15 -15 -16 -17 -16 -16 -17 -17 -17 -17 -17 -17 -18 -18 -19 -19 -19 -19 -19 -19 -18 -17 -17 -16 -16 -15 -14 -15 -15 -13 -12 -12 -11 -11 -11 -11 -11 -11
Height
5819 5813 5806 5799 5792 5784 5777 5769 5761 5753 5744 5735 5725 5717 5711 5705 5702 5700 5701 5708 5714 5721 5726 5734 5741 5746 5752 5758 5764 5771 5776 5783 5792 5803 5812 5817 5824 5830 5834 5838 5843 5853 5862 5868 5872
5814 5807 5799 5791 5783 5775 5766 5757 5748 5739 5728 5716 5707 5702 5698 5694 5687 5681 5677 5680 5689 5699 5708 5717 5725 5732 5738 5745 5751 5758 5765 5773 5782 5794 5803 5809 5815 5821 5827 5832 5840 5850 5856 5862 5870
5808 5799 5791 5783 5774 5766 5756 5746 5735 5724 5711 5702 5698 5695 5690 5685 5680 5673 5666 5661 5663 5676 5689 5700 5710 5719 5725 5733 5739 5748 5756 5762 5773 5782 5793 5801 5807 5812 5818 5826 5835 5849 5854 5861 5867
5801 5793 5783 5775 5767 5757 5746 5734 5722 5710 5700 5696 5692 5688 5684 5679 5676 5668 5662 5655 5652 5657 5669 5682 5694 5704 5712 5720 5727 5737 5744 5749 5760 5772 5783 5792 5799 5805 5810 5818 5830 5836 5847 5855 5864
5795 5786 5776 5767 5758 5747 5736 5723 5711 5699 5694 5691 5687 5683 5678 5674 5670 5666 5659 5656 5652 5651 5656 5665 5676 5688 5697 5707 5715 5725 5732 5738 5750 5762 5773 5783 5791 5796 5803 5812 5821 5832 5845 5852 5858
5789 5779 5770 5761 5750 5738 5727 5714 5702 5692 5690 5687 5683 5678 5674 5670 5666 5662 5658 5656 5654 5653 5654 5657 5665 5673 5685 5695 5703 5712 5720 5725 5741 5753 5763 5773 5781 5788 5799 5805 5811 5828 5839 5846 5853
5782 5773 5764 5755 5743 5730 5718 5707 5696 5690 5687 5683 5678 5672 5667 5662 5658 5656 5654 5653 5652 5652 5653 5654 5658 5663 5672 5681 5691 5701 5708 5716 5730 5742 5752 5762 5772 5788 5790 5794 5804 5821 5832 5839 5846
5777 5768 5759 5748 5736 5723 5711 5702 5692 5688 5683 5678 5672 5665 5659 5653 5649 5649 5648 5648 5648 5649 5649 5651 5654 5659 5664 5670 5679 5689 5696 5707 5720 5732 5741 5752 5773 5774 5781 5786 5798 5809 5822 5832 5842
5772 5763 5754 5743 5730 5718 5706 5696 5689 5685 5678 5671 5666 5661 5656 5650 5646 5644 5643 5642 5642 5643 5645 5647 5650 5654 5658 5662 5668 5673 5681 5692 5704 5718 5731 5747 5763 5767 5772 5781 5788 5801 5813 5825 5834
5769 5759 5750 5739 5727 5714 5703 5692 5686 5680 5673 5667 5662 5658 5652 5647 5643 5639 5637 5636 5636 5637 5639 5641 5644 5647 5651 5655 5657 5659 5668 5677 5691 5709 5723 5736 5748 5757 5764 5772 5781 5794 5804 5818 5829
5764 5755 5745 5734 5722 5710 5699 5690 5683 5676 5670 5663 5658 5653 5648 5643 5637 5633 5630 5629 5628 5629 5630 5633 5636 5639 5642 5644 5647 5651 5659 5668 5683 5698 5711 5727 5734 5748 5755 5762 5772 5785 5796 5811 5823
5760 5750 5740 5729 5717 5705 5695 5686 5677 5672 5665 5659 5654 5649 5644 5638 5631 5626 5622 5621 5620 5620 5621 5625 5628 5629 5632 5637 5642 5648 5654 5664 5673 5686 5700 5715 5726 5737 5745 5753 5766 5777 5790 5803 5815
5757 5747 5735 5725 5713 5701 5691 5682 5673 5667 5660 5655 5651 5646 5639 5633 5624 5618 5613 5612 5611 5612 5614 5616 5619 5621 5624 5629 5636 5643 5649 5657 5664 5674 5689 5703 5712 5726 5738 5746 5757 5771 5786 5798 5810
5756 5744 5734 5723 5711 5699 5690 5680 5670 5663 5657 5654 5648 5641 5634 5627 5619 5612 5607 5607 5606 5607 5607 5610 5611 5614 5616 5619 5623 5631 5639 5646 5655 5662 5675 5684 5702 5719 5731 5741 5751 5766 5778 5791 5802
5754 5744 5733 5718 5708 5698 5689 5677 5666 5660 5657 5651 5643 5636 5629 5622 5613 5608 5602 5601 5601 5601 5603 5604 5605 5607 5610 5611 5612 5622 5629 5638 5647 5653 5664 5680 5692 5714 5723 5732 5744 5762 5774 5786 5797
5752 5742 5731 5719 5707 5697 5686 5675 5665 5660 5654 5648 5639 5631 5624 5617 5609 5604 5597 5595 5594 5594 5596 5597 5599 5602 5605 5607 5610 5614 5623 5631 5640 5646 5652 5670 5689 5705 5714 5731 5744 5758 5772 5781 5792
5750 5739 5729 5717 5706 5695 5684 5674 5665 5657 5652 5646 5637 5629 5621 5615 5609 5601 5595 5591 5589 5589 5590 5589 5593 5596 5598 5601 5603 5608 5617 5625 5632 5637 5651 5669 5681 5701 5721 5731 5743 5753 5767 5777 5787
5749 5737 5726 5716 5705 5693 5683 5672 5664 5655 5648 5642 5634 5625 5620 5613 5607 5600 5594 5588 5585 5584 5582 5584 5588 5589 5590 5593 5597 5601 5611 5620 5627 5636 5650 5662 5674 5695 5717 5730 5740 5750 5762 5772 5781
5748 5737 5725 5714 5703 5692 5681 5671 5662 5653 5645 5638 5632 5624 5618 5611 5605 5598 5592 5588 5585 5582 5581 5578 5578 5581 5583 5585 5589 5595 5604 5618 5628 5640 5646 5656 5683 5697 5709 5718 5729 5740 5753 5766 5776
5746 5736 5726 5714 5701 5690 5680 5670 5660 5651 5643 5635 5630 5623 5615 5609 5603 5597 5591 5586 5583 5581 5577 5576 5576 5577 5578 5581 5581 5587 5603 5612 5620 5630 5641 5654 5672 5686 5695 5709 5722 5736 5747 5759 5773
5742 5734 5723 5713 5701 5688 5679 5669 5659 5650 5641 5635 5629 5622 5616 5609 5603 5596 5592 5586 5582 5579 5576 5575 5577 5576 5576 5576 5579 5585 5594 5608 5620 5629 5641 5650 5668 5684 5698 5711 5722 5735 5746 5756 5768
5741 5730 5720 5710 5700 5686 5676 5667 5660 5651 5641 5634 5629 5623 5615 5608 5603 5597 5591 5586 5583 5580 5577 5576 5577 5576 5572 5575 5578 5586 5598 5609 5618 5630 5642 5654 5674 5688 5700 5712 5722 5731 5743 5753 5764
5737 5728 5716 5706 5698 5688 5675 5666 5659 5651 5642 5632 5627 5621 5616 5609 5602 5597 5590 5587 5582 5581 5579 5579 5577 5576 5575 5579 5583 5590 5597 5606 5613 5626 5639 5652 5669 5681 5693 5706 5718 5727 5739 5750 5760
5734 5724 5715 5705 5696 5686 5677 5668 5658 5649 5641 5632 5625 5621 5615 5609 5603 5597 5592 5587 5583 5581 5580 5577 5577 5576 5578 5581 5585 5591 5602 5604 5613 5626 5642 5652 5669 5678 5691 5704 5715 5724 5737 5749 5759
5731 5723 5712 5704 5696 5685 5675 5666 5658 5650 5643 5634 5627 5619 5614 5608 5602 5596 5593 5590 5587 5582 5581 5579 5579 5578 5579 5583 5587 5591 5600 5608 5618 5628 5643 5655 5670 5683 5694 5706 5715 5725 5736 5746 5755
5730 5721 5712 5704 5694 5685 5674 5664 5656 5648 5641 5635 5628 5620 5614 5608 5603 5597 5593 5590 5587 5583 5581 5581 5582 5581 5584 5588 5592 5595 5606 5612 5620 5630 5640 5654 5668 5682 5692 5702 5714 5723 5733 5743 5751
5728 5720 5711 5702 5693 5683 5674 5664 5655 5647 5640 5632 5626 5620 5616 5611 5605 5599 5594 5591 5589 5587 5584 5586 5587 5588 5591 5594 5596 5605 5610 5619 5627 5638 5648 5656 5671 5682 5692 5703 5714 5724 5733 5742 5749
Wind_Speed
38 42 46 49 49 45 44 47 50 54 58 62 65 66 63 56 58 66 73 70 66 61 62 61 62 61 57 56 58 60 61 59 54 47 42 46 45 48 44 42 41 40 35 29 24
41 46 49 49 46 44 46 49 55 58 61 62 53 36 37 38 37 38 48 68 72 69 63 60 62 64 62 58 58 60 64 61 56 51 46 45 45 50 50 45 42 40 38 37 25
44 48 47 45 44 45 49 54 58 59 56 39 31 35 37 34 35 32 30 37 56 73 70 63 61 62 64 61 60 58 60 61 57 54 51 47 47 48 55 51 43 36 29 33 35
48 50 47 44 44 49 54 57 56 55 34 26 29 34 34 31 28 27 28 24 31 49 69 69 61 60 62 63 62 60 59 60 58 55 54 51 48 50 51 57 47 47 38 30 27
51 52 48 45 49 54 55 54 57 42 23 22 26 29 29 30 28 23 24 19 15 22 39 58 61 61 62 62 62 61 62 59 56 56 55 52 50 51 52 56 54 49 41 38 41
53 51 47 49 54 56 54 54 52 29 22 23 30 33 33 31 29 28 23 18 12 12 17 26 40 56 62 61 63 64 65 64 55 54 56 54 52 52 53 51 60 51 40 36 40
52 49 48 53 57 56 52 54 41 24 25 29 37 40 39 37 34 28 26 22 17 17 17 18 23 34 48 59 62 63 67 66 61 54 56 57 54 51 55 57 55 54 48 38 42
51 49 51 56 58 55 52 51 32 25 29 33 37 38 35 34 25 24 22 24 24 21 22 22 22 24 33 46 57 63 64 65 63 59 56 57 53 54 55 60 55 56 54 46 48
50 50 52 57 58 53 51 46 30 30 31 36 32 29 29 27 22 18 20 20 21 24 28 29 28 27 29 32 45 56 62 66 66 63 58 55 56 54 56 60 57 55 58 51 47
49 51 54 58 58 52 48 42 30 31 36 31 26 24 26 26 24 24 21 20 21 20 22 25 27 31 33 37 38 46 57 63 67 63 59 57 59 53 55 59 58 54 57 57 41
51 53 54 59 60 54 48 44 32 32 36 26 25 23 26 25 27 26 22 24 25 30 27 28 30 31 32 38 44 43 46 53 64 65 63 58 63 53 55 58 61 57 57 56 55
54 54 56 61 62 57 50 48 35 32 34 25 24 20 24 28 30 33 34 26 24 23 23 26 23 27 33 37 41 45 43 41 52 63 65 63 63 55 58 62 59 59 56 56 56
53 54 58 62 63 57 50 49 38 33 31 24 24 25 29 31 33 34 24 19 18 20 19 20 23 27 31 39 42 43 45 38 40 55 69 65 67 55 59 65 60 58 52 48 46
53 54 57 61 61 56 48 48 42 33 30 25 32 30 29 31 33 33 25 19 17 20 21 21 23 23 31 36 46 48 45 46 37 50 71 71 68 56 61 66 63 56 55 50 47
51 54 57 61 61 54 48 48 45 35 27 30 33 31 31 34 32 28 26 20 20 22 25 22 22 23 23 23 39 46 46 44 41 45 68 71 69 59 65 68 65 57 49 50 50
53 53 57 60 61 56 49 47 45 31 29 28 32 33 30 32 25 24 22 20 21 17 21 20 23 26 28 25 27 40 43 44 43 41 64 68 67 65 69 65 63 60 49 44 43
56 53 57 60 60 57 50 47 44 34 31 29 33 31 31 24 22 21 20 18 20 24 26 22 20 25 30 31 31 38 39 41 42 40 61 63 63 68 62 63 62 60 59 51 46
55 54 58 59 59 57 52 47 45 40 33 31 31 33 32 23 20 19 22 17 15 18 21 11 20 24 24 24 31 37 38 41 43 40 57 59 62 70 63 61 63 62 59 57 54
53 56 56 60 60 58 54 46 45 43 33 33 32 30 31 27 20 18 19 19 9 11 16 19 17 24 30 29 35 35 40 37 37 39 52 60 62 67 68 71 68 63 62 59 55
51 55 55 58 61 59 52 46 45 45 36 31 32 27 30 33 30 19 19 18 15 9 5 5 10 13 15 15 23 35 38 40 40 48 42 62 67 74 77 71 66 64 62 58 50
50 53 56 54 59 60 54 47 43 45 39 31 31 27 27 29 31 22 21 17 18 17 9 5 8 13 18 10 17 38 44 43 37 50 41 64 68 77 75 72 67 65 60 56 49
48 53 58 53 56 59 55 50 42 42 41 32 28 27 23 25 31 27 16 16 16 11 11 7 8 12 16 12 25 40 44 48 35 50 48 61 67 74 70 69 66 61 59 54 48
48 54 57 49 53 57 55 47 43 42 42 31 28 30 23 20 28 25 22 11 13 10 5 12 9 9 4 18 33 42 48 50 45 55 52 60 69 75 71 69 70 65 59 52 44
49 54 49 51 54 57 56 51 45 41 42 23 27 29 24 21 23 22 25 15 7 8 5 7 4 3 12 30 42 52 33 15 45 54 57 55 67 72 69 66 68 65 59 54 49
48 50 49 51 53 56 56 53 45 42 39 32 24 31 27 26 29 25 19 14 8 9 7 3 7 5 19 27 57 52 19 42 41 45 58 55 62 65 62 62 59 55 50 49 49
46 48 49 50 52 54 55 51 49 41 39 37 19 25 26 23 26 21 16 15 5 17 12 4 4 8 18 32 41 16 41 46 46 46 57 55 59 61 61 59 59 55 53 50 49
44 44 46 48 51 53 54 52 47 45 41 38 34 21 21 21 25 22 18 10 7 11 8 1 2 9 19 31 16 27 40 44 46 48 49 51 47 56 55 55 53 51 48 46 48
Wind_Direction
332 328 326 324 324 322 319 315 313 309 307 302 297 291 288 288 281 271 261 255 249 246 244 242 233 232 230 230 230 228 228 227 226 221 219 221 218 214 217 222 221 221 219 218 206
331 329 328 328 328 326 323 319 315 313 308 303 299 303 306 308 308 294 268 251 245 240 239 236 234 230 230 229 229 229 227 227 225 222 219 220 218 216 216 220 221 221 221 218 197
338 338 337 335 333 328 325 322 320 317 310 306 303 311 313 312 315 323 305 268 248 236 235 234 231 230 230 229 228 228 230 229 226 223 219 218 217 220 215 217 220 213 203 216 222
344 342 340 338 335 331 329 327 324 322 309 305 311 315 317 313 319 321 328 314 264 241 232 234 232 228 228 229 229 227 227 229 226 224 219 216 218 218 219 217 213 221 193 192 215
348 346 343 340 338 335 334 332 334 321 304 309 312 313 316 315 312 311 312 327 306 251 238 234 233 227 225 224 228 227 227 228 227 223 220 217 216 212 222 220 215 214 217 214 213
350 349 346 343 341 338 338 339 337 319 301 307 309 306 302 303 305 294 290 293 290 263 234 224 233 233 229 229 227 228 227 227 226 224 220 217 216 213 217 220 223 213 206 203 213
350 350 348 345 344 342 344 345 338 317 303 307 308 307 305 298 294 293 274 273 261 258 245 231 222 227 231 233 230 228 229 228 225 221 220 218 214 213 212 220 222 214 208 207 216
352 351 349 348 347 345 348 347 339 328 316 310 313 319 321 321 309 288 275 268 262 241 245 237 231 230 232 233 232 231 230 229 228 223 219 218 208 212 208 217 216 216 214 201 206
353 351 350 350 350 348 349 346 334 331 329 330 327 328 328 328 327 308 279 267 254 250 243 241 237 234 231 232 232 230 231 228 226 224 221 215 206 213 208 211 217 214 213 212 211
354 351 351 351 351 351 350 346 333 337 337 327 330 335 339 328 319 301 285 269 259 251 245 243 241 238 232 229 229 230 228 227 224 221 219 214 207 209 209 208 215 212 213 212 210
354 351 351 353 353 354 352 348 335 334 336 332 335 340 336 331 309 302 295 281 258 257 259 246 244 238 233 229 230 230 228 227 223 219 216 211 209 203 205 209 211 210 213 210 209
353 351 351 352 353 355 352 350 342 332 337 339 333 342 335 322 309 299 297 289 274 257 247 244 234 243 239 236 231 231 230 227 225 216 213 211 208 200 202 209 206 211 212 212 212
354 351 351 352 353 355 351 349 343 334 344 342 341 331 328 331 319 307 301 280 270 249 253 252 259 265 249 238 232 230 228 227 223 216 211 208 209 196 201 206 207 207 209 215 217
354 354 353 352 354 355 350 350 352 352 351 345 342 337 333 333 324 313 304 280 280 263 255 263 271 264 256 240 229 226 225 225 223 213 208 205 206 193 198 207 209 206 207 208 208
354 355 355 353 355 354 352 354 358 357 346 343 345 345 339 346 331 323 310 284 275 266 260 266 265 248 238 236 234 222 221 219 219 214 205 203 205 188 196 204 207 203 204 207 213
353 351 355 354 355 354 354 357 1 354 354 346 351 351 353 342 338 333 321 295 278 283 271 259 255 237 237 242 235 229 219 214 217 215 205 201 201 187 196 203 208 204 198 202 207
356 354 354 354 354 354 355 358 360 353 352 353 356 352 358 353 357 352 339 320 301 282 281 240 247 241 242 251 245 228 219 212 210 209 204 199 197 187 192 202 207 209 202 202 207
356 354 354 354 353 354 356 358 356 359 352 347 355 359 1 5 356 11 2 340 324 303 274 241 258 245 241 247 234 224 216 214 209 205 200 197 193 183 189 199 205 208 209 203 205
354 354 353 354 353 354 358 355 356 358 355 350 352 353 352 351 6 3 9 8 334 309 297 277 266 260 246 239 230 225 210 206 205 206 200 197 183 184 188 198 202 205 209 212 214
351 352 351 352 352 354 359 355 356 356 355 349 349 352 354 350 5 5 10 15 12 326 312 267 238 231 222 224 238 205 193 196 195 194 195 191 182 184 190 193 200 205 210 213 213
347 349 350 350 353 354 356 359 356 355 350 350 351 346 349 349 341 19 9 18 25 12 346 321 258 216 222 227 202 184 181 185 194 192 187 188 182 182 191 197 203 205 210 213 212
347 348 348 349 353 353 354 357 359 356 351 347 347 349 351 347 353 2 14 23 21 23 22 356 330 266 296 182 173 176 175 173 186 195 187 191 181 181 190 197 204 206 209 212 214
348 348 349 353 353 353 355 355 358 355 356 342 345 348 350 338 338 337 344 1 30 50 73 17 338 324 124 179 174 172 175 187 169 185 185 190 180 184 191 195 203 209 209 210 209
348 350 353 353 353 353 354 354 355 357 357 345 344 348 353 343 332 324 330 329 22 35 9 360 173 355 174 171 179 168 173 156 169 181 183 189 181 187 189 195 202 209 211 215 219
349 351 350 351 352 351 352 353 355 354 355 356 347 345 357 6 1 343 317 312 356 15 340 203 201 197 189 189 177 175 137 165 173 178 184 186 184 186 189 195 200 206 206 211 220
347 348 347 350 351 351 349 351 352 352 353 357 348 350 355 357 355 343 316 325 284 28 25 147 182 203 185 180 182 128 163 171 173 181 185 191 183 184 191 194 201 207 211 214 216
343 345 345 344 348 349 348 349 349 351 349 351 358 358 352 360 357 354 343 27 345 18 20 154 225 156 198 165 133 127 167 175 173 180 188 193 177 183 190 194 200 206 211 214 218